• In Deutschland
  • Länderverzeichnis
  • Für 7 Tage
  • Wassertemperatur
  • Satellitenkarten
  • Wetterkarte
  • Widgets
  • user-avatar
    Anmelden

    Stündliche Wetter Steinfurt

    Heute, 21 Oktober, Samstag

    Zeit Temperatur Niederschläge Wind Luftdruck Luftfeuchtigkeit
    00:00 +10°C° 0 mm 5 m/S 753 mmHg 80%
    01:00 +10°C° 0 mm 4 m/S 753 mmHg 81%
    02:00 +10°C° 0 mm 4 m/S 753 mmHg 82%
    03:00 +10°C° 0 mm 4 m/S 753 mmHg 83%
    04:00 +10°C° 0 mm 4 m/S 753 mmHg 83%
    05:00 +10°C° 0 mm 4 m/S 753 mmHg 83%
    06:00 +10°C° 0 mm 4 m/S 752 mmHg 83%
    07:00 +11°C° 0,1 mm 4 m/S 752 mmHg 82%
    08:00 +12°C° 0,1 mm 5 m/S 752 mmHg 81%
    09:00 +13°C° 0,1 mm 5 m/S 752 mmHg 80%
    10:00 +13°C° 0,1 mm 5 m/S 752 mmHg 82%
    11:00 +14°C° 0,1 mm 5 m/S 752 mmHg 83%
    12:00 +14°C° 0,1 mm 5 m/S 752 mmHg 84%
    13:00 +15°C° 0,1 mm 5 m/S 752 mmHg 82%
    14:00 +15°C° 0,1 mm 5 m/S 752 mmHg 80%
    15:00 +15°C° 0,1 mm 5 m/S 751 mmHg 78%
    16:00 +14°C° 0 mm 5 m/S 752 mmHg 77%
    17:00 +13°C° 0 mm 4 m/S 752 mmHg 77%
    18:00 +12°C° 0 mm 4 m/S 752 mmHg 77%
    19:00 +12°C° 0 mm 4 m/S 752 mmHg 76%
    20:00 +11°C° 0 mm 4 m/S 752 mmHg 76%
    21:00 +10°C° 0 mm 5 m/S 752 mmHg 75%
    22:00 +10°C° 0 mm 5 m/S 752 mmHg 75%
    23:00 +10°C° 0 mm 5 m/S 752 mmHg 75%

    Morgen, 22 Oktober, Sonntag

    Zeit Temperatur Niederschläge Wind Luftdruck Luftfeuchtigkeit
    00:00 +9°C° 0 mm 5 m/S 752 mmHg 75%
    01:00 +9°C° 0 mm 6 m/S 751 mmHg 75%
    02:00 +9°C° 0 mm 6 m/S 751 mmHg 75%
    03:00 +9°C° 0 mm 6 m/S 751 mmHg 75%
    04:00 +8°C° 0,6 mm 7 m/S 750 mmHg 78%
    05:00 +8°C° 0,6 mm 7 m/S 750 mmHg 81%
    06:00 +8°C° 0,6 mm 7 m/S 750 mmHg 84%
    07:00 +8°C° 0,4 mm 7 m/S 750 mmHg 84%
    08:00 +9°C° 0,4 mm 7 m/S 751 mmHg 84%
    09:00 +9°C° 0,4 mm 7 m/S 751 mmHg 84%
    10:00 +10°C° 0,1 mm 7 m/S 751 mmHg 81%
    11:00 +10°C° 0,1 mm 7 m/S 751 mmHg 78%
    12:00 +11°C° 0,1 mm 7 m/S 751 mmHg 74%
    13:00 +11°C° 0,1 mm 6 m/S 751 mmHg 74%
    14:00 +11°C° 0,1 mm 6 m/S 751 mmHg 74%
    15:00 +11°C° 0,1 mm 6 m/S 751 mmHg 74%
    16:00 +10°C° 0,1 mm 6 m/S 751 mmHg 77%
    17:00 +9°C° 0,1 mm 6 m/S 751 mmHg 80%
    18:00 +8°C° 0,1 mm 7 m/S 751 mmHg 83%
    19:00 +8°C° 1,5 mm 7 m/S 751 mmHg 85%
    20:00 +9°C° 1,5 mm 6 m/S 751 mmHg 88%
    21:00 +9°C° 1,5 mm 6 m/S 752 mmHg 90%
    22:00 +9°C° 1,2 mm 6 m/S 752 mmHg 91%
    23:00 +10°C° 1,2 mm 6 m/S 752 mmHg 91%

    übermorgen, 23 Oktober, Montag

    Zeit Temperatur Niederschläge Wind Luftdruck Luftfeuchtigkeit
    00:00 +10°C° 1,2 mm 6 m/S 752 mmHg 92%
    01:00 +10°C° 0,5 mm 6 m/S 753 mmHg 91%
    02:00 +10°C° 0,5 mm 6 m/S 753 mmHg 90%
    03:00 +10°C° 0,5 mm 6 m/S 754 mmHg 89%
    04:00 +10°C° 0,2 mm 6 m/S 754 mmHg 89%
    05:00 +9°C° 0,2 mm 6 m/S 755 mmHg 89%
    06:00 +9°C° 0,2 mm 5 m/S 755 mmHg 88%
    07:00 +10°C° 0,1 mm 5 m/S 756 mmHg 86%
    08:00 +10°C° 0,1 mm 5 m/S 757 mmHg 84%
    09:00 +12°C° 0,1 mm 5 m/S 757 mmHg 81%
    10:00 +12°C° 0,1 mm 5 m/S 758 mmHg 79%
    11:00 +13°C° 0,1 mm 5 m/S 758 mmHg 76%
    12:00 +13°C° 0,1 mm 4 m/S 758 mmHg 73%
    13:00 +13°C° 0,1 mm 4 m/S 759 mmHg 75%
    14:00 +13°C° 0,1 mm 3 m/S 759 mmHg 76%
    15:00 +13°C° 0,1 mm 3 m/S 759 mmHg 77%
    16:00 +13°C° 0 mm 2 m/S 760 mmHg 81%
    17:00 +12°C° 0 mm 2 m/S 760 mmHg 86%
    18:00 +11°C° 0 mm 1 m/S 760 mmHg 90%
    19:00 +11°C° 0 mm 1 m/S 761 mmHg 91%
    20:00 +10°C° 0 mm 1 m/S 761 mmHg 92%
    21:00 +9°C° 0 mm 2 m/S 761 mmHg 94%
    22:00 +10°C° 0 mm 1 m/S 761 mmHg 94%
    23:00 +9°C° 0 mm 1 m/S 761 mmHg 95%

    24 Oktober, Dienstag

    Zeit Temperatur Niederschläge Wind Luftdruck Luftfeuchtigkeit
    00:00 +9°C° 0 mm 1 m/S 761 mmHg 95%
    01:00 +8°C° 0 mm 2 m/S 762 mmHg 95%
    02:00 +8°C° 0 mm 2 m/S 762 mmHg 95%
    03:00 +8°C° 0 mm 2 m/S 762 mmHg 95%
    04:00 +8°C° 0 mm 2 m/S 762 mmHg 94%
    05:00 +8°C° 0 mm 2 m/S 762 mmHg 94%
    06:00 +8°C° 0 mm 3 m/S 762 mmHg 93%
    07:00 +9°C° 0 mm 3 m/S 762 mmHg 90%
    08:00 +10°C° 0 mm 3 m/S 762 mmHg 86%
    09:00 +11°C° 0 mm 3 m/S 762 mmHg 83%
    10:00 +12°C° 0 mm 3 m/S 762 mmHg 81%
    11:00 +13°C° 0 mm 3 m/S 762 mmHg 78%
    12:00 +14°C° 0 mm 4 m/S 762 mmHg 76%
    13:00 +14°C° 0 mm 3 m/S 762 mmHg 78%
    14:00 +14°C° 0 mm 3 m/S 762 mmHg 81%
    15:00 +14°C° 0 mm 3 m/S 762 mmHg 83%
    16:00 +14°C° 0,1 mm 3 m/S 762 mmHg 85%
    17:00 +14°C° 0,1 mm 3 m/S 762 mmHg 87%
    18:00 +13°C° 0,1 mm 4 m/S 762 mmHg 89%
    19:00 +13°C° 0,1 mm 4 m/S 762 mmHg 90%
    20:00 +13°C° 0,1 mm 4 m/S 762 mmHg 91%
    21:00 +13°C° 0,1 mm 4 m/S 762 mmHg 92%
    22:00 +13°C° 0,1 mm 4 m/S 762 mmHg 93%
    23:00 +14°C° 0,1 mm 4 m/S 762 mmHg 94%

    25 Oktober, Mittwoch

    Zeit Temperatur Niederschläge Wind Luftdruck Luftfeuchtigkeit
    00:00 +14°C° 0,1 mm 4 m/S 762 mmHg 95%
    01:00 +14°C° 0,1 mm 4 m/S 762 mmHg 95%
    02:00 +14°C° 0,1 mm 4 m/S 762 mmHg 95%
    03:00 +14°C° 0,1 mm 4 m/S 762 mmHg 95%
    04:00 +14°C° 0,1 mm 4 m/S 762 mmHg 96%
    05:00 +14°C° 0,1 mm 3 m/S 762 mmHg 96%
    06:00 +14°C° 0,1 mm 3 m/S 762 mmHg 96%
    07:00 +14°C° 0 mm 4 m/S 762 mmHg 94%
    08:00 +14°C° 0 mm 4 m/S 762 mmHg 93%
    09:00 +15°C° 0 mm 4 m/S 763 mmHg 92%
    10:00 +15°C° 0 mm 4 m/S 763 mmHg 90%
    11:00 +15°C° 0 mm 5 m/S 763 mmHg 88%
    12:00 +16°C° 0 mm 5 m/S 763 mmHg 86%
    13:00 +17°C° 0 mm 4 m/S 762 mmHg 86%
    14:00 +17°C° 0 mm 4 m/S 762 mmHg 86%
    15:00 +17°C° 0 mm 3 m/S 762 mmHg 85%
    16:00 +17°C° 0 mm 3 m/S 763 mmHg 87%
    17:00 +16°C° 0 mm 2 m/S 763 mmHg 90%
    18:00 +16°C° 0 mm 2 m/S 763 mmHg 92%
    19:00 +15°C° 0 mm 2 m/S 763 mmHg 93%
    20:00 +15°C° 0 mm 2 m/S 763 mmHg 94%
    21:00 +14°C° 0 mm 2 m/S 763 mmHg 95%
    22:00 +14°C° 0 mm 2 m/S 763 mmHg 95%
    23:00 +14°C° 0 mm 2 m/S 763 mmHg 96%

    26 Oktober, Donnerstag

    Zeit Temperatur Niederschläge Wind Luftdruck Luftfeuchtigkeit
    00:00 +14°C° 0 mm 2 m/S 764 mmHg 96%
    01:00 +14°C° 0 mm 2 m/S 763 mmHg 96%
    02:00 +13°C° 0 mm 2 m/S 763 mmHg 96%
    03:00 +13°C° 0 mm 2 m/S 763 mmHg 97%
    04:00 +13°C° 0 mm 2 m/S 763 mmHg 96%
    05:00 +13°C° 0 mm 2 m/S 763 mmHg 96%
    06:00 +13°C° 0 mm 2 m/S 763 mmHg 96%
    07:00 +14°C° 0 mm 2 m/S 763 mmHg 93%
    08:00 +15°C° 0 mm 2 m/S 764 mmHg 89%
    09:00 +16°C° 0 mm 2 m/S 764 mmHg 86%
    10:00 +17°C° 0 mm 2 m/S 763 mmHg 82%
    11:00 +18°C° 0 mm 3 m/S 763 mmHg 78%
    12:00 +19°C° 0 mm 3 m/S 763 mmHg 74%
    13:00 +19°C° 0 mm 3 m/S 762 mmHg 76%
    14:00 +19°C° 0 mm 2 m/S 762 mmHg 77%
    15:00 +18°C° 0 mm 2 m/S 762 mmHg 79%
    16:00 +18°C° 0 mm 2 m/S 761 mmHg 81%
    17:00 +17°C° 0 mm 2 m/S 761 mmHg 84%
    18:00 +16°C° 0 mm 2 m/S 761 mmHg 86%
    19:00 +16°C° 0 mm 2 m/S 761 mmHg 87%
    20:00 +14°C° 0 mm 3 m/S 761 mmHg 87%
    21:00 +14°C° 0 mm 3 m/S 760 mmHg 88%
    22:00 +14°C° 0 mm 3 m/S 760 mmHg 89%
    23:00 +13°C° 0 mm 3 m/S 760 mmHg 89%
    Mehr zeigen